Weather History for Sedalia, MO

Change the Weather History Date:

Sunday, October 20, 2013

  Actual Average Record
Temperature  
Mean Temperature 60 °F 57 °F  
Max Temperature 70 °F 67 °F 86 °F (1963)
Min Temperature 49 °F 47 °F 22 °F (1972)
Degree Days  
Heating Degree Days 5 9  
Month to date heating degree days 120 130  
Since 1 July heating degree days 139 175  
Cooling Degree Days 0 1  
Month to date cooling degree days 45 30  
Year to date cooling degree days 1482 1480  
Growing Degree Days 9 (Base 50)    
Moisture  
Dew Point 39 °F    
Average Humidity 51    
Maximum Humidity 71    
Minimum Humidity 31    
Precipitation  
Precipitation 0.00 in 0.13 in 0.88 in (1983)
Month to date precipitation 0.98 2.55  
Year to date precipitation 34.45 34.60  
Sea Level Pressure  
Sea Level Pressure 29.89 in    
Wind  
Wind Speed 13 mph (SW)    
Max Wind Speed 23 mph    
Max Gust Speed 30 mph    
Visibility 10 miles    
Events      
T = Trace of Precipitation, MM = Missing Value Source: NWS Daily Summary

Daily Weather History Graph

Daily Weather History Graph

Search for Another Location

Airport:

Trip Planner

Search our weather history database for the weather conditions in past years. The results will help you decide how hot, cold, wet, or windy it might be!

Date:

Astronomy

Oct. 20, 2013 Rise Set
Actual Time 7:27 AM CDT 6:27 PM CDT
Civil Twilight 7:00 AM CDT 6:53 PM CDT
Nautical Twilight 6:29 AM CDT 7:24 PM CDT
Astronomical Twilight 5:58 AM CDT 7:55 PM CDT
Moon 7:37 PM CDT (10/20) 9:04 AM CDT (10/20)
Length of Visible Light 11h 53m
Length of Day
10h 59m
Full, 97% of the Moon is Illuminated
Oct 20
Full
Oct 26
Last Quarter
Nov 3
New
Nov 9
First Quarter
Nov 17
Full

Hourly Weather History & Observations

Time (CDT) Temp. Dew Point Humidity Pressure Visibility Wind Dir Wind Speed Gust Speed Precip Events Conditions
12:53 AM 48.9 °F 39.0 °F 69% 29.94 in 10.0 mi SSW 11.5 mph - N/A   Clear
1:53 AM 48.9 °F 37.9 °F 66% 29.93 in 10.0 mi SSW 13.8 mph - N/A   Clear
2:53 AM 48.9 °F 37.9 °F 66% 29.91 in 10.0 mi SSW 11.5 mph - N/A   Clear
3:53 AM 50.0 °F 37.9 °F 63% 29.90 in 10.0 mi SSW 15.0 mph - N/A   Clear
4:53 AM 48.9 °F 37.9 °F 66% 29.88 in 10.0 mi SSW 13.8 mph - N/A   Clear
5:53 AM 48.9 °F 37.9 °F 66% 29.88 in 10.0 mi SW 16.1 mph - N/A   Clear
6:53 AM 50.0 °F 37.9 °F 63% 29.88 in 10.0 mi SW 13.8 mph - N/A   Clear
7:53 AM 50.0 °F 39.0 °F 66% 29.90 in 10.0 mi SW 16.1 mph - N/A   Clear
8:53 AM 52.0 °F 39.9 °F 63% 29.91 in 10.0 mi SW 17.3 mph - N/A   Clear
9:53 AM 55.9 °F 39.9 °F 55% 29.90 in 10.0 mi SW 17.3 mph 24.2 mph N/A   Clear
10:53 AM 60.1 °F 39.9 °F 47% 29.90 in 10.0 mi SW 18.4 mph 23.0 mph N/A   Clear
11:53 AM 64.0 °F 41.0 °F 43% 29.89 in 10.0 mi SSW 16.1 mph - N/A   Clear
12:53 PM 66.0 °F 42.1 °F 42% 29.87 in 10.0 mi SSW 18.4 mph 25.3 mph N/A   Clear
1:53 PM 68.0 °F 42.1 °F 39% 29.85 in 10.0 mi SSW 16.1 mph 25.3 mph N/A   Clear
2:53 PM 70.0 °F 39.9 °F 33% 29.84 in 10.0 mi SW 16.1 mph 27.6 mph N/A   Clear
3:53 PM 69.1 °F 37.9 °F 32% 29.83 in 10.0 mi SW 15.0 mph 28.8 mph N/A   Clear
4:53 PM 69.1 °F 39.9 °F 35% 29.83 in 10.0 mi SW 13.8 mph 19.6 mph N/A   Clear
5:53 PM 66.9 °F 37.9 °F 34% 29.84 in 10.0 mi SSW 11.5 mph - N/A   Clear
6:53 PM 63.0 °F 37.0 °F 38% 29.86 in 10.0 mi SW 9.2 mph - N/A   Clear
7:53 PM 59.0 °F 37.9 °F 46% 29.87 in 10.0 mi SSW 8.1 mph - N/A   Clear
8:53 PM 57.0 °F 37.9 °F 49% 29.89 in 10.0 mi SSW 5.8 mph - N/A   Clear
9:53 PM 57.0 °F 39.9 °F 53% 29.91 in 10.0 mi SW 8.1 mph - N/A   Mostly Cloudy
10:53 PM 57.0 °F 39.9 °F 53% 29.92 in 10.0 mi SW 8.1 mph - N/A   Overcast
11:53 PM 57.0 °F 41.0 °F 55% 29.93 in 10.0 mi West 5.8 mph - N/A   Overcast